Regional Weather Roundup
Issued by NWS

Home | Current Version | Previous Version | Graphics & Text | Print | Product List | Glossary On
Versions: 1 2 3 4 5 6 7 8 9 10 11 12 13 14 15 16 17 18 19 20 21 22 23 24 25 26 27 28 29 30 31 32 33 34 35 36 37 38 39 40 41 42 43 44 45 46 47 48 49 50
158
ASUS44 KJAN 311710
RWRMS

MISSISSIPPI HOURLY WEATHER ROUNDUP
NATIONAL WEATHER SERVICE JACKSON MS
1100 AM CST SAT JAN 31 2015

NOTE: "FAIR: INDICATES FEW OR NO CLOUDS BELOW 12,000 FEET WITH NO
SIGNIFICANT WEATHER AND/OR OBSTRUCTIONS TO VISIBILITY.

MSZ001>002-007>008-010>013-018>021-025>028-034>036-311800-
NORTHWEST MISSISSIPPI

CITY           SKY/WX    TMP DP  RH WIND       PRES   REMARKS
CLARKSDALE     FAIR      45  28  53 SE8       30.36F
CLEVELAND      FAIR      44  29  55 SE9       30.34F
GREENWOOD      CLOUDY    48  25  40 E9        30.35F
GREENVILLE     CLOUDY    46  28  49 SE14      30.33F
GRENADA        FAIR      45  30  57 E8        30.37F
OLIVE BRANCH   PTSUNNY   39  27  60 E6        30.37F WCI  35
OXFORD         FAIR      45  23  42 SE6       30.37F
TUNICA         CLOUDY    43  27  52 E5        30.37F
$$

MSZ003>006-009-014>017-022>024-029>033-037>039-311800-
NORTHEAST MISSISSIPPI

CITY           SKY/WX    TMP DP  RH WIND       PRES   REMARKS
COLUMBUS AFB   SUNNY     49  22  35 E6        30.38F
CORINTH        FAIR      43  25  49 E5        30.37F
GOLDN TRIANGLE MOSUNNY   46  27  46 E5        30.38F
STARKVILLE     FAIR      46  27  46 SE5       30.38F
TUPELO         CLOUDY    47  23  38 SE3       30.38F
$$

MSZ040-058-311800-
CENTRAL MISSISSIPPI

CITY           SKY/WX    TMP DP  RH WIND       PRES   REMARKS
JACKSON INTL   PTSUNNY   50  24  36 SE8       30.34F
JACKSON HAWKNS MOSUNNY   51  25  36 SE8       30.34F
MERIDIAN KEY   CLOUDY    49  23  36 E9        30.36S
MERIDIAN NAS   CLOUDY    47  22  37 E9        30.37F
RAYMOND        FAIR      50  46  87 MISG      30.33F
VICKSBURG      MOSUNNY   50  28  42 E9        30.33F
$$

MSZ059>079-311800-
SOUTH MISSISSIPPI

CITY           SKY/WX    TMP DP  RH WIND       PRES   REMARKS
BROOKHAVEN     FAIR      50  28  43 E6        30.34F
HATTIESBURG    SUNNY     51  26  37 SE7       30.35F
MCCOMB         MOSUNNY   52  26  36 E7        30.32F
NATCHEZ        PTSUNNY   52  27  37 SE9       30.31F
PINE BELT      SUNNY     52  27  37 S8        30.35F
$$

MSZ080>082-311800-
COASTAL MISSISSIPPI

CITY           SKY/WX    TMP DP  RH WIND       PRES   REMARKS
BAY ST LOUIS   SUNNY     55  36  47 E10       30.34F
BILOXI         SUNNY     54  35  48 E9        30.34F
PASCAGOULA     SUNNY     55  35  47 VRB7      30.35S
GULFPORT       SUNNY     54  36  50 NE7       30.34F
$$



USA.gov is the U.S. government's official web portal to all federal, state and local government web resources and services.